User: anonymous
Location: Fort Wayne
(41.1310°N, 85.1290°W)
Time: 18:55:02
(UTC-04:00)
Language:

IDEFIX/ARIANE 42P - Orbit

View from above orbital plane
View from above orbital plane
View from above satellite
View from above satellite

Ground track
Ground track

The orbit data is extracted from the following two-line orbital elements,

1 27422U 02021B   14210.10504332  .00000046  00000-0  34358-4 0  5474
2 27422 098.2972 250.5945 0013708 118.7979 294.1508 14.29035073636128
Epoch (UTC): 29 July 2014 02:31:15
Eccentricity: 0.0013708
inclination: 98.2972°
perigee height: 785 km
apogee height: 805 km
right ascension of ascending node: 250.5945°
argument of perigee: 118.7979°
revolutions per day: 14.29035073
mean anomaly at epoch: 294.1508°
orbit number at epoch: 63612

The dashed part of the orbit path shows where the satellite is in the earth's shadow,  

DLR